Voltar ao catálogo

STARLINK-35444

AtivoComunicaçõesVLEO
NORAD 66511·PAYLOAD·🇺🇸 United States

Lançado Nov 15, 2025 de Cape Canaveral Space Force Station

Loading…

Próximas Passagens (próximas 24 horas)

TLE

AtualizadoSource: CelesTrak SupGP

Época: Sep 15, 2026, 03:39 UTC

1 66511C 25263AC  26258.15256944  .00043134  00000+0  15622-2 0  2586
2 66511  43.0035   0.5748 0001491 263.2617 192.2207 15.27559196    16

Acompanhe STARLINK-35444 em tempo real com AllMySat

Download on the App Store